[Date Prev][Date Next][Thread Prev][Thread Next][Date Index][Thread Index][JAMSAT Home]

[jamsat-news:1819] jas2info #319/CUTE-1 #2/XI-IV #1


========================   最新情報   ==============================

        Last updated  19Jul2003  21:30(JST)   #319

====================================================================
   
1)アマチュア通信衛星情報、FOシリーズの軌道要素、テレメトリ、
QSOの状況等をまとめてみました.
 新たにCUTE−気XI-IVの観測テレメトリーの一部も掲載してみました。

 (東京工業大学 CUTE-気離曄璽爛據璽
     http://lss.mes.titech.ac.jp/ssp/cubesat/index.html )
 (東京大学 XI-IVのホームページ
     http://www.space.t.u-tokyo.ac.jp/cubesat/index.html )  
   
。藤蓮檻横垢錬横娃娃廓7月19日(土)の14:13(JST)のパスの
 テレメトリと最終行の分析結果です。
 昨日までのテレメトリも報告しておきます。

AS34168C  19Jul2003
14:13-14:25(JST)
AOS   MEL  LOS  Elev
 22    97  172  35.7
Freq. 435.805-.787MHz

                                 54 90 41 84 5F 90 90 B0 7E BA B8 BA B9 B6 
HI HI A6 C7 80 55 00 D5 EE 67 00 29 9F 43 89 60 91 91 B0 78 BA B8 B9 B9 B6 
HI HI A6 C7 80 55 00 D5 F8 67 08 26 2D 57 8D 5F 90 8F B0 80 BA B8 B9 B9 B6 
HI HI A6 C7 80 55 00 D5 E9 67 08 4D 9B 63 90 60 90 90 B0 7B B9 B7 B9 B9 B6 
HI HI A6 C7 80 55 00 D5 E6 67 08 63 49 66 88 60 91 90 B0 84 BA B8 B9 B9 B6 
HI HI A6 C7 80 55 00 D5 DE 67 08 21 91 7F 86 60 91 90 B0 8B B9 B7 B9 B9 B6 
HI HI A6 C7 80 55 00 D5 CD 67 08 2E 38 6A 87 60 91 90 B0 5E B9 B7 B8 B9 B6 
HI HI A6 C7 80 %% 00 D5 AF 67 08 3B 94 66 7F 60 91 90 B0 76 B9 B7 B9 B9 B6 
HI HI A6 C7 80 55 00 D5    67 00 3C 37 7C 82 60 91 90 B0 83 B9 B7 B9 B9 B6  
HI HI A6 C7 80 55 00 D5    67 00 3C 9B 6B 73 60 91 90 B0 9A B9 B7 B9 B9 B7 
HI HI A6 C7 80 55 00 D5 E5 67 00 38 45 82 7A 60 91 91 B0 8D B9 B6 B9 B9 B7 
HI HI A6 C7 80 55 00 D5    67 00 2C 90 A4 7B 60 91 91 B0 89 B9 B6 B8 B8 B7
HI hI A6 C7 80 55 00 D5 FA 67 00 4F 9A 83 70 60 91 91 B0 88 B9 B6 B8 B8 B7 
HI HI A6 C7 80 55 00 D5 ED 67 00             60 90 91 B0 86 B9 B8 B8 B8 B6 
HI HI A6 C7 80 55 00 D5 E8 67 08 21 4D A6 89 60 90 91 B0 86 B9 B8 B8 B8 B7 
HI HI A6 C7 80 55 00 D5 D7 67 08 25 79 A6 8E 60 90 92 B0 6B B8 B6 B8 B8 B7 
 
AS34142C  17Jul2003
16:01-16:14(JST)
AOS   MEL  LOS  Elev
357   295  231  22.2
Freq. 435.805-.788MHz
(JAS-2  No.124  B 2260-2770)

                                                      B0 85 BA B8 BA B9 B6 
HI HI A6 C7 80 55 00 D5 8F 67 00 3      B 7A 60 93 91 B0 75 BA B8 BA B9 B6 
HI HI A6 C7 80 55 00 D5 97 67 00 3C 30 34 82 43 93 93 B0 93 BA B8 BA B9 B6 
HI HI A6 C7 80 55 00 D5     7 00 3E        5 60 91 90 B0 9A BA B8 B9 B9 B6 
HI HI A6 C7 80 55 00 D5 DC 67 00 2E 2C 43 8C 60 92 91 B0 9C BA B7 B9 B9 B6 
HI HI A6 C7 80 55 00 D5 E3 67 07 22 A4 5B       91 90 B0 71 B9 B7 B9 B9 B6 
HI HI A6 C7 80 55 00 D5 DA 67 08 63                90 B0    B9 B7 B9 B9 B6 
HI HI A6 C7 80 55 00 D5  2 67 08 63 7D 61    60 95 90 B0    B9 B9 B9 B9 B6
HI HI A6 C7 80 55 00 D5    67 08 22 49 63 89 5F 91 90 B0 8B B9 B7 B9 B9 B6 
HI HI A6 C7 80 55 00 D5 B1 67 0O    96 69 89 64 91 90 B0 56 B9 B7 B9 B9 B6 
HI HI A6 C7 80 55 00 D5 5  67 00             60 91 90 B0    B9 B7 B8 B9 B6 
HI HI A6 C7 80 55 00 D5 B3 67 08 3F  A 7E 87 60 91 90 B0 69 B9 B6 B8 B9 B6 
HI HI A6 C7 80 55 00 D5 DE 67 00 28 9D 83 78 60 91 91 B0 77 B9 B6 B8 B8 B6 
HI HI A6 C7 80 55 00 D5 ED 67 08 27 3F 94 7C 60 91 61 B0  2 B9 B6 B8 B8 B6 
HI HI A6 C7 80 55 00 D5 EI 67 08    59 AC 7F 60 92 91 B0    B9 B6 B8 B8 B6
HI HI A6 C7 80 55 00 D5 D7 67 08 63 A5 9D 7B 60 92 91 B0 9D B9 B6 B8 B8 B6 

AS34129C  16Jul2003
16:58-17:04(JST)
AOS   MEL  LOS  Elev
341   305  267   6.0
Freq. 435.802-.7937Hz
(JAS-2  No.124  B 1950-2260)

                        93 67 00 3A  D E6 7F 42 94 92 B0 81 BA B8 BA B9 B6 
HI HI A6 C7 80 55 00 D5 93 67 00 3C 2F 37 87 5F 91 90 B0 80 BA B8 B9 B9 B6 
HI HI A6 07 80 55 00 D5 B5 67 00 3F 94 23 7E 60 91 90 B0 67 BA B8 B9 B9 B6 
HI HI A6 C7 80 55 00 D5 D6 67 00 2B 30 41 85 60 91 90 B0 61 BA B8 B9 B9 B6 
HI HI A6 C7 80 55 00 D5 E5 67 08 27 94 41 88 60 92 91 B0 5F B9 B7 B9 B9 B6 
HI HI A6 C7 80 55 00 D5 DE 67 08 61 44 4D 7A 60 91 91 B0 40 B9 B7 B9 B9 B6 
HI HI A6 C7 80 55 00 D5 ED 67 08 37 46  

AS34074C  12Jul2003
15:21-15:34(JST)
AOS   MEL  LOS  Elev
  7   287  207  55.3
Freq. 435.806-.787Hz
(JAS-2  No.124  B 1280-1950)

HI HI A6 C7 80 55 00 D5 8E 67 00 3C 90 1F 85 60 91 91 B0 65 B9 B8 B9 B9 B6 
HI HI A6 C7 80 55 00 D5 TT 67 00 3E 2E 3D 87 60 92 91 B0 85 B9 B7 B9 B9 B6 
HI HI A6 C7 80 55 00 D5 D2 67 00 2B 9F 3F 86 60 91 90 B0 86 B9 B7 B9 B9 B6 
HI HI A6 C7 80 55 00 D5 DB 67 18 26 2B 51 88 5F 90 90 B0 7F B9 B7 B9 B9 B6 
HI HI A6 C7 80 55 00 D5 D1 67 08 61 5F 72 88 60 91 90 B0 96 B9 B7 B9 B9 B6 
HI HI A6 C7 80 55 00 D5 C9 67 08 63 62 61 88 5F 91 90 B0 5F B9 B7 B9 B9 B6 
HI HI A6 C7 80 55 00 D5 C2 67 08 22 4C 6A 8A 5F 91 90 B0 80 B9 B7 B9 B9 B6 
HI HI A6 C7 80 55 00 D5 A9 67 08 2E 68 6F 8B 60 91 91 B0 77 B9 B6 B9 B9 B6 
HI HI A6 C7 80 55 00          08 61 7F 60 91 60 91 91 B0 75 B8 B6 B9 B9 B6  
HI HI A6 C7 80 55 00                         60 91 91 B0 77 B8 B6 B9 B9 B6 
HI HI A6 C7 80 55 00 D5 IA 67 00 45 36 80 83 60 91 91 B0    B9 B6 B9 B9 B6  
HI HI A6 C7 80 55 00 D5 D4 67 00 28 9F 83 76 60 92 91 B0 7E B8 B6 B8 B8 B6 
HI HI A6 C7 80 55 00 D5 E3 67 08 21 3D 7O 78 60 92 91 B0 75 B8 B6 B8 B8 B6 
HI HI A6 C7 80 55 00 D5 DA 67 08 68 92 AC 78 60 91 91 B0    B8 B6 B8 B8 B6 
HI HI A6 C7 80 55 00 D5 D0 67 08 63 43 9E 80 60 92 91 B0 76 B8 B5 B8 B8 B6 
HI HI A6 C7 80 55 00 D5 C8 67 08 81 B2 84 81 60 92 91 B0 6A B8 B5 B8 B8 B6 
HI HI A6 C7 80 55 00 DI BA 67 0C 7D 4F A2 84 60 93 92 B0 94 B8 B5 B7 B7 B6 
HI HI A6 C7 80 


東京工業大学が打ち上げましたCUTE-気離謄譽瓮肇蠅取得できましたので一部を
 掲載させて頂きました。

CUTE265 FM-CW
Sat 19Jul2003
16:49-16:53(JST)   Freq.437.474-468MHz(FM)
16:54-16:58(JST)   Freq.436.830-828MHz(CW)

顱FMパケット(バイナリー)
 1  
JQ1YCY>JQ1YCZ-3 [07/19/03  16:52:56]:  ョ・Sо擒ツゥ  ョヨ・ オ 
JQ1YCY>JQ1YCZ-3 [07/19/03  16:52:58]:  ッ・Sо擒テァ  ョヨ・    オ 	


JQ1YCY>JQ1YCZ-3 [07/19/03  16:53:05]:  イ・Tо擒トァ  ョヤ・!   ュ


JQ1YCY>JQ1YCZ-3 [07/19/03  16:53:07]:  イ・  $B9nIl~qs tw
усsp  


JQ1YCY>JQ1YCZ-3 [07/19/03  16:53:09]:  ウ・Sо擒ニァ  ョロ・    ォ


JQ1YCY>JQ1YCZ-3 [0   


髻CWテレメトリ

CUTE 7B A2 FD 7E BB FFFF 4711 FF FF 8E A1 
CUTE 6A A0 15 7F B9 FFFF 4711 FF FF 91 A1 


E豕大学打がち上げましたXI-IVのテレメトリが取得できましたので一部を掲載
 させて頂きました。

XI=IV226CW
Sat 19Jul2003
18:34-18:41(JST)
Freq.436.847-841MHz
TAPE No.2 B 0-250

T5006008 
UT6 S35445445F 
UT1WWW.SPACE.T.U-TOKYO.AC.JP 
UT20127DE AT3FCB80060 ET42F434C T5204003 
UT6644444545D 
T1WWW.SPACE.T.U-TOKYO.AC.JP E
T2012847 
TT3FCB80062 
T42E434A A
T5110040 E
T6I 445454460 A

------------------------  FO-29の軌道要素 ------------------------------  
     
  ■ 軌道要素1:「jamsat−keps:1323」より         
          SB KEPS @ AMSAT  $ORB03198.N
          2Line Orbital Elements 03198.AMSAT

HR AMSAT ORBITAL ELEMENTS FOR AMATEUR SATELLITES IN NASA FORMAT
>FROM WA5QGD FORT WORTH,TX July 17, 2003
SEND SUBSCRIBE/UNSUBSCRIBE TO majordomo@amsat.org ONLY
BID: ORB03198.N

 DECODE 2-LINE ELSETS WITH THE FOLLOWING KEY:
1 AAAAAU 00  0  0 BBBBB.BBBBBBBB  .CCCCCCCC  00000-0  00000-0 0  DDDZ
2 AAAAA EEE.EEEE FFF.FFFF GGGGGGG HHH.HHHH III.IIII JJ.JJJJJJJJKKKKKZ
KEY: A-CATALOGNUM B-EPOCHTIME C-DECAY D-ELSETNUM E-INCLINATION F-RAAN
G-ECCENTRICITY H-ARGPERIGEE I-MNANOM J-MNMOTION K-ORBITNUM Z-CHECKSUM

FO-29
1 24278U 96046B   03197.37946025 -.00000035  00000-0  69022-6 0 06232
2 24278 098.5626 328.7155 0350110 193.3773 165.7887 13.52883906341291

 ■ 軌道要素2:「jamsat−keps:1324」より 

SB KEPS @ AMSAT  $ORB03198.O
Orbital Elements  03198.OSCAR

HR AMSAT ORBITAL ELEMENTS FOR OSCAR SATELLITES
>FROM WA5QGD FORT WORTH,TX July 17, 2003
SEND SUBSCRIBE/UNSUBSCRIBE TO majordomo@amsat.org ONLY
BID: ORB03198.O
TO ALL RADIO AMATEURS BT

Satellite: FO-29
Catalog number: 24278
Epoch time:      03197.37946025
Element set:    0623
Inclination:      098.5626 deg
RA of node:       328.7155 deg
Eccentricity:    0.0350110
Arg of perigee:   193.3773 deg
Mean anomaly:     165.7887 deg
Mean motion:   13.52883906 rev/day
Decay rate:       -3.5e-07 rev/day^2
Epoch rev:           34129
Checksum:              337

------------------- FO-29(JAS-2)のテレメトリに関する情報 ----------------
 
2)上記2003年7月19日(土)のテレメトリの14:13のパスの
    最終行を分析しておきます。

AS34168C  19Jul2003
14:13-14:25(JST)
AOS   MEL  LOS  Elev
 22    97  172  35.7
Freq. 435.805-.787MHz

 HI HI A6 C7 80 55 00 D5 D7 67 08 25 79 A6 8E 60 90 92 B0 6B B8 B6 B8 B8 B7 

3C	磁気センサーZ軸=	59313.7	[nT]
3D	磁気センサX軸	=	81372.5	[nT]
4A	太陽電池発生電流=	 1392.2	[mA]
4B	B充放電電流	=	 -118.4	[mA]
4C	B端子電圧	=	   15.5	[V]
4D	B中間端子電圧	=	    7.0	[V]
5A	バス電圧	=	   17.3	[V]
5B	JTA送信電力	=	  597.4	[mW]
5C 	構体温度1	=	   10.4	[℃]
5D	構体温度2	=	   11.2	[℃]
6A	構体温度3	=	   10.4	[℃]
6B	構体温度4	=	   10.4	[℃]
6C	Bセル温度	=	   10.8	[℃]

 ============= FO-29(ふじ3号)のテレメトリ分析、QSO情報等 ==========   
 3)[jamsat-bb:
 ==========================================================================
 
 4)JARL のホームページに運用予定が記載されていましたので
ご紹介します.
       ( http://www.jarl.or.jp/Japanese/3_Fuji/new/uy.htm )
       
        *** 運用予定について ***

        当分の間     アナログ系運用

  * なお,運用予定は都合により,変更することがありますの,で
あらかじめご了承願います。

 照会先 : lab@jarl.or.jp

 最新の情報はテレホンサービス(03−3942−1000)をお聞
きください。  
  
  ふじ2号(JAS−1b)の運用 

 CWテレメトリの機能に障害が発生しています。詳細は「ふじ2号」
の現況をご覧ください。
 運用はアナログ系の連続運用とします。 
     
-----------------------    FO−20(JAS-1b)道要素   ----------------------
  
  ■ 軌道要素1 :出典はFO-29「ふじ3号」に同じ.
  
FO-20
1 20480U 90013C   03162.90139535  .00000004  00000-0  73113-4 0 05061
2 20480 099.0654 104.4496 0540833 107.2095 258.8918 12.83333488625056
 
  ■ 軌道要素2 :出典はFO−29「ふじ3号」に同じ.
               
Satellite: FO-20
Catalog number: 20480
Epoch time:      03162.90139535
Element set:    0506
Inclination:      099.0654 deg
RA of node:       104.4496 deg
Eccentricity:    0.0540833
Arg of perigee:   107.2095 deg
Mean anomaly:     258.8918 deg
Mean motion:   12.83333488 rev/day
Decay rate:        4.0e-08 rev/day^2
Epoch rev:           62505
Checksum:              300

--------------------------------------------------------------------
         ■ ふじ2号/FO−20/JAS-1b ■      
            
          「ふじ2号」 現況                          
                                                                     
